[[[{"header":{"parameterUnit":"kt","parameterCategory":2,"dx":1,"dy":1,"la1":30.253999710083008,"la2":30.299108505249023,"lo1":-89.0895004272461,"lo2":-89.04439544677734,"nx":28,"ny":28,"refTime":"2022-10-02T21:00:00:Z","depth":0,"parameterNumber":1,"parameterNumberName":"U-component_of_WINDS"},"data":[-3.2691,-3.2897,-3.2897,-3.3133,-3.3172,-3.3335,-3.3393,-3.3469,-3.3529,-3.3724,-3.3836,-3.3859,-3.3921,-3.4057,-3.4181,-3.4188,-3.4244,-3.4316,-3.4314,-3.3984,-3.3939,-3.3896,-3.3848,-3.4326,-3.4327,-3.4658,-3.4661,-3.4664,-3.245,-3.2491,-3.2614,-3.2735,-3.2841,-3.2771,-3.2861,-3.2957,-3.3104,-3.318,-3.329,-3.3463,-3.3599,-3.3638,-3.3771,-3.387,-3.3847,-3.3907,-3.3903,-3.3915,-3.3561,-3.351,-3.3923,-3.3923,-3.3923,-3.3923,-3.3923,-3.3923,-3.2011,-3.2135,-3.2207,-3.2341,-3.2401,-3.2482,-3.2601,-3.2624,-3.2747,-3.2883,-3.2859,-3.3027,-3.3105,-3.3265,-3.3319,-3.3452,-3.3387,-3.3454,-3.3472,-3.3491,-3.3513,-3.3044,-3.3474,-3.3473,-3.3471,-3.347,-3.347,0,-3.1692,-3.1683,-3.1802,-3.1921,-3.2019,-3.2111,-3.2197,-3.2269,-3.2252,-3.2355,-3.2504,-3.259,-3.2761,-3.2903,-3.3027,-3.3071,-3.3014,-3.3006,-3.3053,-3.3072,-3.3072,-3.308,-3.2508,-3.2996,-3.2991,-3.2988,-3.2986,-3.2985,-3.1256,-3.1398,-3.1472,-3.1556,-3.1602,-3.1737,-3.1818,-3.1792,-3.188,-3.1982,-3.2093,-3.2233,-3.2345,-3.2585,-3.2615,-3.2744,-3.2719,-3.2905,-3.2739,-3.2748,-3.273,-3.2724,-3.2741,-3.2941,-3.2947,-3.2951,-3.2955,0,-3.1011,-3.1009,-3.1229,-3.1289,-3.1309,-3.146,-3.1513,-3.1635,-3.1644,-3.1816,-3.1854,-3.1871,-3.2019,-3.2017,-3.2186,-3.2182,-3.2438,-3.2406,-3.2412,-3.2408,-3.2579,-3.2566,-3.3125,-3.3199,-3.2696,-3.2701,-3.2705,0,-3.0641,-3.0829,-3.0816,-3.0944,-3.1152,-3.112,-3.1327,-3.1356,-3.142,-3.1555,-3.1485,-3.1613,-3.1591,-3.1719,-3.1713,-3.1921,-3.1951,-3.1963,-3.196,-3.1973,-3.1973,-3.2026,-3.2006,-3.1941,-3.1938,-3.1935,-3.1933,0,-3.0264,-3.0475,-3.0681,-3.073,-3.0814,-3.0912,-3.0952,-3.1024,-3.1104,-3.1207,-3.126,-3.1383,-3.1453,-3.155,-3.1542,-3.1429,-3.1794,-3.1637,-3.1807,-3.1808,-3.1894,-3.189,-3.2378,-3.1929,-3.1929,-3.1928,-3.1927,0,-2.9968,-3.0069,-3.0368,-3.0436,-3.0494,-3.063,-3.0748,-3.0864,-3.0945,-3.0949,-3.103,-3.0986,-3.1163,-3.1009,-3.1255,-3.1111,-3.1184,-3.1209,-3.1221,-3.1244,-3.1073,-3.1357,-3.1816,-3.1868,-3.1256,-3.125,-3.1245,0,-2.9539,-2.9838,-2.9813,-3.0098,-3.0237,-3.015,-3.03,-3.0373,-3.0391,-3.0513,-3.0532,-3.0673,-3.0556,-3.0601,-3.0721,-3.075,-3.0936,-3.0723,-3.0909,-3.0916,-3.0896,-3.1317,-3.1389,-3.1714,-3.1173,-3.1181,-3.1186,0,-2.9208,-2.9306,-2.9358,-2.9413,-2.9502,-2.9618,-2.979,-2.992,-3.0003,-3.0091,-3.0239,-3.0432,-3.0355,-3.0428,-3.0406,-3.0532,-3.0809,-3.0433,-3.0435,-3.0506,-3.1135,-3.1203,-3.1257,-3.0767,-3.0775,-3.0782,-3.1129,0,-2.877,-2.8918,-2.9058,-2.9179,-2.9267,-2.9443,-2.944,-2.9533,-2.9501,-2.9516,-2.973,-2.9791,-2.9927,-2.9986,-2.9957,-3.0245,-3.0198,-3.0114,-2.997,-3.0243,-3.0358,-3.0404,-2.9798,-2.9794,-2.979,-2.9787,0,0,-2.8365,-2.8577,-2.8544,-2.8709,-2.8782,-2.869,-2.888,-2.894,-2.9066,-2.912,-2.9037,-2.9322,-2.9376,-2.9638,-2.9722,-2.9775,-2.9829,-2.9734,-3.0111,-3.0147,-3.0181,-3.0303,-3.0351,-2.9781,-2.9779,-2.9778,-2.9777,0,-2.8206,-2.8255,-2.8441,-2.8501,-2.8589,-2.8595,-2.8639,-2.8712,-2.8731,-2.8937,-2.8864,-2.8991,-2.9219,-2.9288,-2.9353,-2.9699,-2.964,-2.974,-2.9929,-3.0074,-3.0115,-3.0151,-3.028,-3.0326,-2.9768,-2.9769,-2.9769,0,-2.7883,-2.7934,-2.8022,-2.8179,-2.8237,-2.8381,-2.8226,-2.8385,-2.8493,-2.8389,-2.8597,-2.8632,-2.8723,-2.8967,-2.9077,-2.9007,-2.9469,-2.9321,-2.9344,-2.9358,-2.9499,-2.9548,-2.9592,-2.9017,-2.9015,-2.9012,0,0,-2.7747,-2.7883,-2.7931,-2.8145,-2.8186,-2.8197,-2.8273,-2.825,-2.8331,-2.8364,-2.8408,-2.8491,-2.8624,-2.8712,-2.8836,-2.9104,-2.9124,-2.9228,-2.9264,-2.9293,-2.9323,-2.9471,-2.952,-2.9002,-2.9002,-2.9002,0,0,-2.7683,-2.7746,-2.7699,-2.7946,-2.8024,-2.8089,-2.8221,-2.8167,-2.8277,-2.8258,-2.8229,-2.825,-2.8479,-2.8517,-2.8384,-2.8786,-2.8642,-2.8673,-2.8754,-2.8799,-2.8834,-2.8823,-2.8239,0,0,0,0,0,-2.7519,-2.7737,-2.7694,-2.7735,-2.7935,-2.8112,-2.8137,-2.8117,-2.8015,-2.8121,-2.8149,-2.8078,-2.8439,-2.8321,-2.8364,-2.8514,-2.8875,-2.8898,-2.8919,-2.9086,-2.9133,-2.9172,0,0,0,0,0,0,-2.7535,-2.7585,-2.7688,-2.7761,-2.7806,-2.8103,-2.7927,-2.7928,-2.8004,-2.7987,-2.8074,-2.8081,-2.8069,-2.8298,-2.8337,-2.848,-2.8225,-2.8884,-2.8903,-2.892,-2.9102,-2.914,-2.9173,0,0,0,0,0,-2.7547,-2.7587,-2.7913,-2.7758,-2.7797,-2.7822,-2.7919,-2.7918,-2.7977,-2.802,-2.8024,-2.7954,-2.8073,-2.8105,-2.8321,-2.8463,-2.8198,-2.8213,-2.8896,-2.8912,-2.8925,-2.9121,0,0,0,0,0,0,-2.7556,-2.7589,-2.7921,-2.7932,-2.7674,-2.7805,-2.7825,-2.791,-2.8005,-2.801,-2.7898,-2.7884,-2.8079,-2.8102,-2.8127,-2.8458,-2.8176,-2.8191,-2.82,-2.8908,-2.892,-2.893,0,0,0,0,0,0,-2.7567,-2.7599,-2.7926,-2.7821,-2.782,-2.779,-2.7807,-2.7988,-2.8007,-2.7877,-2.7868,-2.789,-2.8043,-2.8102,-2.8121,-2.8404,-2.8159,-2.8174,-2.8184,-2.819,-2.8918,-2.8927,0,0,0,0,0,0,-2.758,-2.7608,-2.7818,-2.7817,-2.7816,-2.794,-2.7949,-2.8157,-2.7913,-2.7874,-2.7891,-2.7881,-2.8045,-2.8063,-2.8117,-2.8393,-2.8402,-2.816,-2.817,-2.8176,-2.8181,0,0,0,0,0,0,0,-2.7591,-2.7411,-2.7854,-2.7814,-2.7812,-2.8036,-2.8039,-2.8042,-2.7911,-2.7902,-2.7894,-2.7885,-2.8078,-2.8094,-2.811,-2.8384,0,0,-2.8159,-2.8165,0,0,0,0,0,0,0,0,-2.7399,-2.7408,-2.7854,-2.7856,-2.7859,-2.8036,-2.8039,-2.8041,-2.791,-2.7902,-2.7895,-2.7889,-2.8083,-2.8095,-2.8108,0,0,0,0,0,0,0,0,0,0,0,0,0,0,0,-2.7854,-2.7856,0,-2.8036,-2.8039,-2.8041,-2.7909,-2.7903,-2.7897,-2.7891,-2.8086,-2.8096,-2.8107,0,0,0,0,0,0,0,0,0,0,0,0,0,0,0,0,0,0,0,0,0,0,0,0,0,0,0,0,0,0,0,0,0,0,0,0,0,0,0,0,0,0,0,0,0,0,0,0,0,0,0,0,0,0,0,0,0,0,0,0,0,0,0,0,0,0,0,0,0]}],[{"header":{"parameterUnit":"kt","parameterCategory":2,"dx":1,"dy":1,"la1":30.253999710083008,"la2":30.299108505249023,"lo1":-89.0895004272461,"lo2":-89.04439544677734,"nx":28,"ny":28,"refTime":"2022-10-02T21:00:00:Z","depth":0,"parameterNumber":2,"parameterNumberName":"V-component_of_WINDS"},"data":[-9.3182,-9.3367,-9.3368,-9.3578,-9.3613,-9.3755,-9.3806,-9.387,-9.3921,-9.4087,-9.4181,-9.4197,-9.4244,-9.4354,-9.4454,-9.4457,-9.4499,-9.4565,-9.4558,-9.4269,-9.4228,-9.419,-9.4147,-9.4574,-9.4575,-9.4857,-9.486,-9.4862,-9.2969,-9.3008,-9.312,-9.3228,-9.3323,-9.3261,-9.334,-9.3422,-9.3549,-9.3613,-9.3706,-9.3851,-9.3963,-9.3988,-9.4095,-9.4177,-9.4151,-9.4205,-9.4199,-9.4206,-9.3898,-9.3853,-9.4224,-9.4224,-9.4224,-9.4224,-9.4224,-9.4224,-9.2582,-9.2693,-9.2759,-9.288,-9.2934,-9.3006,-9.311,-9.3129,-9.3235,-9.3351,-9.3327,-9.347,-9.353,-9.3657,-9.3698,-9.3806,-9.3745,-9.3803,-9.3817,-9.3832,-9.3849,-9.3441,-9.3824,-9.3823,-9.3822,-9.3821,-9.382,0,-9.2298,-9.2291,-9.2398,-9.2506,-9.2594,-9.2676,-9.2751,-9.2815,-9.2796,-9.2884,-9.3011,-9.3083,-9.3225,-9.3341,-9.344,-9.347,-9.341,-9.3404,-9.3443,-9.3457,-9.3457,-9.3458,-9.2954,-9.3392,-9.3389,-9.3386,-9.3384,-9.3382,-9.1906,-9.2036,-9.2105,-9.218,-9.2221,-9.2342,-9.2413,-9.2387,-9.2463,-9.2548,-9.2645,-9.2763,-9.2855,-9.3055,-9.307,-9.3174,-9.3146,-9.3313,-9.316,-9.3169,-9.3147,-9.314,-9.3151,-9.3343,-9.3348,-9.3352,-9.3356,0,-9.1685,-9.1685,-9.1885,-9.194,-9.1957,-9.2093,-9.2137,-9.2245,-9.225,-9.2398,-9.2431,-9.2438,-9.2561,-9.2549,-9.2686,-9.2675,-9.2893,-9.2863,-9.2872,-9.2865,-9.3014,-9.3,-9.3499,-9.3562,-9.312,-9.3124,-9.3128,0,-9.135,-9.1521,-9.151,-9.1626,-9.1814,-9.1783,-9.1969,-9.1991,-9.2044,-9.216,-9.2092,-9.2202,-9.2169,-9.2277,-9.2262,-9.2438,-9.2463,-9.2465,-9.2459,-9.2472,-9.2471,-9.2509,-9.2488,-9.2441,-9.2438,-9.2436,-9.2434,0,-9.1004,-9.1198,-9.1387,-9.143,-9.1504,-9.1593,-9.1627,-9.1685,-9.1755,-9.1842,-9.1886,-9.1989,-9.2045,-9.2125,-9.2104,-9.2001,-9.2319,-9.2173,-9.2321,-9.2322,-9.2391,-9.2387,-9.2833,-9.2431,-9.243,-9.2429,-9.2428,0,-9.0732,-9.0826,-9.11,-9.1159,-9.1211,-9.1335,-9.1436,-9.1539,-9.1605,-9.1604,-9.1672,-9.1624,-9.1778,-9.1634,-9.1844,-9.1715,-9.1774,-9.179,-9.18,-9.1812,-9.1651,-9.1903,-9.233,-9.2373,-9.1824,-9.1819,-9.1815,0,-9.0336,-9.0613,-9.0589,-9.0849,-9.0975,-9.089,-9.1026,-9.1087,-9.1098,-9.1203,-9.1213,-9.1333,-9.1223,-9.1258,-9.1364,-9.1378,-9.1545,-9.1355,-9.1503,-9.1509,-9.1488,-9.1881,-9.1948,-9.2238,-9.175,-9.1757,-9.1762,0,-9.0028,-9.0118,-9.0167,-9.0215,-9.0293,-9.0398,-9.0554,-9.0668,-9.0739,-9.0816,-9.0944,-9.1112,-9.1036,-9.1096,-9.1067,-9.1178,-9.1431,-9.108,-9.1081,-9.1143,-9.1717,-9.1779,-9.1828,-9.1387,-9.1394,-9.1401,-9.171,0,-8.9617,-8.9755,-8.9886,-8.9995,-9.0074,-9.0237,-9.0227,-9.031,-9.0276,-9.0283,-9.0472,-9.0517,-9.063,-9.0682,-9.0649,-9.0908,-9.0862,-9.0779,-9.0636,-9.0895,-9.0996,-9.1038,-9.0486,-9.0482,-9.0478,-9.0475,0,0,-8.9236,-8.9434,-8.9403,-8.9555,-8.962,-8.953,-8.9704,-8.9755,-8.9862,-8.9908,-8.9829,-9.0073,-9.0113,-9.0343,-9.0423,-9.0469,-9.0513,-9.0423,-9.0772,-9.0805,-9.0836,-9.0945,-9.0988,-9.0469,-9.0467,-9.0466,-9.0465,0,-8.9084,-8.9133,-8.9307,-8.936,-8.9438,-8.9437,-8.9479,-8.9539,-8.9551,-8.9737,-8.9657,-8.9768,-8.9965,-9.0018,-9.007,-9.0396,-9.0328,-9.0431,-9.061,-9.0736,-9.0774,-9.0808,-9.0923,-9.0964,-9.0456,-9.0457,-9.0457,0,-8.8779,-8.8825,-8.8908,-8.9053,-8.9102,-8.9233,-8.9082,-8.9227,-8.9323,-8.9213,-8.9399,-8.9423,-8.9492,-8.9712,-8.981,-8.974,-9.016,-9.0025,-9.0047,-9.0058,-9.0179,-9.0224,-9.0265,-8.9729,-8.9726,-8.9724,0,0,-8.8648,-8.8777,-8.8816,-8.9019,-8.9056,-8.9058,-8.9126,-8.9099,-8.9166,-8.9193,-8.9222,-8.9287,-8.94,-8.9475,-8.9581,-8.9824,-8.9834,-8.9936,-8.997,-8.9999,-9.0024,-9.0153,-9.0198,-8.9715,-8.9715,-8.9714,0,0,-8.8584,-8.8639,-8.8594,-8.8828,-8.8896,-8.8946,-8.907,-8.9013,-8.9108,-8.9088,-8.9045,-8.9061,-8.9266,-8.9292,-8.9168,-8.9529,-8.9389,-8.9418,-8.9505,-8.9548,-8.9582,-8.9571,-8.9018,0,0,0,0,0,-8.8424,-8.8633,-8.8591,-8.8629,-8.881,-8.897,-8.8993,-8.8964,-8.8866,-8.8964,-8.8979,-8.8902,-8.9216,-8.9106,-8.9143,-8.928,-8.9595,-8.9616,-8.9636,-8.9805,-8.9851,-8.9889,0,0,0,0,0,0,-8.8439,-8.8485,-8.8585,-8.8645,-8.8685,-8.8962,-8.8789,-8.8787,-8.8855,-8.8837,-8.8902,-8.8904,-8.8881,-8.9085,-8.9119,-8.925,-8.9006,-8.9603,-8.9621,-8.9637,-8.9821,-8.9858,-8.989,0,0,0,0,0,-8.845,-8.8488,-8.8787,-8.8641,-8.8677,-8.8689,-8.8781,-8.8778,-8.8829,-8.8853,-8.8853,-8.8802,-8.8885,-8.8911,-8.9105,-8.9236,-8.8983,-8.8996,-8.9615,-8.9629,-8.9642,-8.9839,0,0,0,0,0,0,-8.8459,-8.8485,-8.8793,-8.8803,-8.8561,-8.8673,-8.8689,-8.877,-8.8839,-8.8842,-8.875,-8.8736,-8.8891,-8.891,-8.8931,-8.9233,-8.8964,-8.8977,-8.8985,-8.9626,-8.9637,-8.9647,0,0,0,0,0,0,-8.8464,-8.8494,-8.8798,-8.8698,-8.8696,-8.8658,-8.8673,-8.8832,-8.8841,-8.8732,-8.8722,-8.8743,-8.8859,-8.8911,-8.8926,-8.9176,-8.8949,-8.8962,-8.897,-8.8975,-8.9635,-8.9643,0,0,0,0,0,0,-8.8476,-8.8501,-8.8695,-8.8694,-8.8691,-8.8795,-8.8798,-8.8984,-8.8759,-8.873,-8.8738,-8.8728,-8.8862,-8.8877,-8.8924,-8.9168,-8.9174,-8.895,-8.8958,-8.8964,-8.8968,0,0,0,0,0,0,0,-8.8486,-8.8325,-8.8737,-8.869,-8.8687,-8.889,-8.8893,-8.8896,-8.8757,-8.8748,-8.874,-8.8732,-8.8879,-8.8893,-8.8906,-8.9161,0,0,-8.8948,-8.8954,0,0,0,0,0,0,0,0,-8.8314,-8.8322,-8.8738,-8.874,-8.8742,-8.8891,-8.8893,-8.8895,-8.8755,-8.8749,-8.8742,-8.8735,-8.8883,-8.8894,-8.8905,0,0,0,0,0,0,0,0,0,0,0,0,0,0,0,-8.8738,-8.8739,0,-8.8891,-8.8893,-8.8895,-8.8754,-8.8749,-8.8743,-8.8738,-8.8886,-8.8895,-8.8904,0,0,0,0,0,0,0,0,0,0,0,0,0,0,0,0,0,0,0,0,0,0,0,0,0,0,0,0,0,0,0,0,0,0,0,0,0,0,0,0,0,0,0,0,0,0,0,0,0,0,0,0,0,0,0,0,0,0,0,0,0,0,0,0,0,0,0,0,0]}]]]